• în Republica Moldova
  • Lista ţărilor
  • Pe 7 zile
  • Temperatura apei
  • Hartă satelitară
  • Meteo pe hartă
  • Widget-uri
  • user-avatar
    Intrare

    Meteo pe oră la Tibissa

    Astăzi, 27 Aprilie, Joi

    Timp Temperatura Precipitaţii Vânt Presiune Umiditate
    00:00 +17°C° 0 mm 3 m/s 683 mmHg 50%
    01:00 +17°C° 0 mm 2 m/s 683 mmHg 52%
    02:00 +16°C° 0,2 mm 2 m/s 683 mmHg 54%
    03:00 +16°C° 0,2 mm 2 m/s 682 mmHg 56%
    04:00 +16°C° 0,2 mm 2 m/s 682 mmHg 59%
    05:00 +16°C° 0 mm 2 m/s 682 mmHg 56%
    06:00 +17°C° 0 mm 2 m/s 682 mmHg 54%
    07:00 +18°C° 0 mm 2 m/s 682 mmHg 51%
    08:00 +20°C° 0 mm 3 m/s 683 mmHg 44%
    09:00 +22°C° 0 mm 4 m/s 683 mmHg 37%
    10:00 +24°C° 0 mm 6 m/s 684 mmHg 30%
    11:00 +27°C° 0 mm 7 m/s 684 mmHg 27%
    12:00 +28°C° 0 mm 7 m/s 684 mmHg 24%
    13:00 +29°C° 0 mm 8 m/s 684 mmHg 21%
    14:00 +29°C° 0 mm 8 m/s 683 mmHg 21%
    15:00 +29°C° 0 mm 8 m/s 683 mmHg 21%
    16:00 +29°C° 0 mm 8 m/s 683 mmHg 20%
    17:00 +27°C° 0 mm 7 m/s 683 mmHg 24%
    18:00 +24°C° 0 mm 6 m/s 682 mmHg 28%
    19:00 +23°C° 0 mm 5 m/s 682 mmHg 32%
    20:00 +22°C° 0 mm 5 m/s 682 mmHg 34%
    21:00 +21°C° 0 mm 5 m/s 682 mmHg 36%
    22:00 +19°C° 0 mm 5 m/s 682 mmHg 38%
    23:00 +19°C° 0 mm 4 m/s 682 mmHg 42%

    Mâine, 28 Aprilie, Vineri

    Timp Temperatura Precipitaţii Vânt Presiune Umiditate
    00:00 +18°C° 0 mm 4 m/s 682 mmHg 45%
    01:00 +18°C° 0 mm 3 m/s 682 mmHg 48%
    02:00 +17°C° 0 mm 3 m/s 681 mmHg 53%
    03:00 +16°C° 0 mm 3 m/s 681 mmHg 58%
    04:00 +15°C° 0 mm 2 m/s 681 mmHg 64%
    05:00 +15°C° 0 mm 2 m/s 681 mmHg 63%
    06:00 +16°C° 0 mm 2 m/s 681 mmHg 62%
    07:00 +16°C° 0 mm 2 m/s 681 mmHg 62%
    08:00 +18°C° 0 mm 2 m/s 682 mmHg 53%
    09:00 +21°C° 0 mm 2 m/s 683 mmHg 44%
    10:00 +24°C° 0 mm 3 m/s 683 mmHg 36%
    11:00 +25°C° 0 mm 3 m/s 683 mmHg 33%
    12:00 +26°C° 0 mm 3 m/s 684 mmHg 30%
    13:00 +28°C° 0 mm 4 m/s 684 mmHg 27%
    14:00 +27°C° 0 mm 4 m/s 683 mmHg 28%
    15:00 +27°C° 0 mm 5 m/s 683 mmHg 29%
    16:00 +27°C° 0 mm 6 m/s 683 mmHg 31%
    17:00 +23°C° 0,1 mm 5 m/s 682 mmHg 43%
    18:00 +20°C° 0,1 mm 5 m/s 682 mmHg 55%
    19:00 +17°C° 0,1 mm 4 m/s 682 mmHg 67%
    20:00 +15°C° 0,1 mm 4 m/s 683 mmHg 72%
    21:00 +14°C° 0,1 mm 4 m/s 683 mmHg 77%
    22:00 +13°C° 0,1 mm 4 m/s 684 mmHg 82%
    23:00 +12°C° 0,1 mm 4 m/s 683 mmHg 83%

    Poimâine, 29 Aprilie, Sâmbătă

    Timp Temperatura Precipitaţii Vânt Presiune Umiditate
    00:00 +12°C° 0,1 mm 3 m/s 683 mmHg 84%
    01:00 +11°C° 0,1 mm 3 m/s 683 mmHg 85%
    02:00 +11°C° 0,1 mm 3 m/s 682 mmHg 86%
    03:00 +12°C° 0,1 mm 2 m/s 682 mmHg 86%
    04:00 +12°C° 0,1 mm 2 m/s 682 mmHg 86%
    05:00 +12°C° 0,1 mm 2 m/s 682 mmHg 85%
    06:00 +12°C° 0,1 mm 2 m/s 682 mmHg 83%
    07:00 +13°C° 0,1 mm 2 m/s 682 mmHg 82%
    08:00 +14°C° 0,1 mm 2 m/s 683 mmHg 74%
    09:00 +16°C° 0,1 mm 2 m/s 683 mmHg 67%
    10:00 +17°C° 0,1 mm 2 m/s 684 mmHg 60%
    11:00 +19°C° 0,2 mm 2 m/s 684 mmHg 56%
    12:00 +20°C° 0,2 mm 2 m/s 684 mmHg 51%
    13:00 +21°C° 0,2 mm 3 m/s 684 mmHg 47%
    14:00 +21°C° 0,8 mm 3 m/s 683 mmHg 50%
    15:00 +20°C° 0,8 mm 3 m/s 683 mmHg 53%
    16:00 +20°C° 0,8 mm 3 m/s 683 mmHg 56%
    17:00 +18°C° 0,7 mm 3 m/s 683 mmHg 62%
    18:00 +17°C° 0,7 mm 2 m/s 683 mmHg 68%
    19:00 +16°C° 0,7 mm 2 m/s 683 mmHg 75%
    20:00 +15°C° 0,2 mm 2 m/s 683 mmHg 78%
    21:00 +14°C° 0,2 mm 2 m/s 683 mmHg 81%
    22:00 +13°C° 0,2 mm 2 m/s 683 mmHg 85%
    23:00 +13°C° 0 mm 1 m/s 683 mmHg 84%

    30 Aprilie, Duminică

    Timp Temperatura Precipitaţii Vânt Presiune Umiditate
    00:00 +13°C° 0 mm 1 m/s 683 mmHg 83%
    01:00 +12°C° 0 mm 1 m/s 683 mmHg 81%
    02:00 +12°C° 0 mm 1 m/s 683 mmHg 80%
    03:00 +12°C° 0 mm 1 m/s 682 mmHg 79%
    04:00 +11°C° 0 mm 1 m/s 682 mmHg 78%
    05:00 +12°C° 0 mm 1 m/s 682 mmHg 74%
    06:00 +13°C° 0 mm 1 m/s 683 mmHg 70%
    07:00 +14°C° 0 mm 1 m/s 683 mmHg 66%
    08:00 +18°C° 0 mm 1 m/s 684 mmHg 59%
    09:00 +20°C° 0 mm 1 m/s 684 mmHg 52%
    10:00 +22°C° 0 mm 1 m/s 685 mmHg 45%
    11:00 +23°C° 0,1 mm 2 m/s 685 mmHg 42%
    12:00 +24°C° 0,1 mm 3 m/s 685 mmHg 39%
    13:00 +25°C° 0,1 mm 3 m/s 684 mmHg 36%
    14:00 +24°C° 0,7 mm 3 m/s 684 mmHg 38%
    15:00 +24°C° 0,7 mm 3 m/s 684 mmHg 40%
    16:00 +24°C° 0,7 mm 2 m/s 683 mmHg 42%
    17:00 +21°C° 0,7 mm 2 m/s 683 mmHg 49%
    18:00 +20°C° 0,7 mm 2 m/s 683 mmHg 56%
    19:00 +19°C° 0,7 mm 2 m/s 683 mmHg 63%
    20:00 +18°C° 0,3 mm 2 m/s 684 mmHg 67%
    21:00 +16°C° 0,3 mm 1 m/s 684 mmHg 72%
    22:00 +15°C° 0,3 mm 1 m/s 684 mmHg 77%
    23:00 +15°C° 0 mm 1 m/s 684 mmHg 79%

    1 Mai, Luni

    Timp Temperatura Precipitaţii Vânt Presiune Umiditate
    00:00 +14°C° 0 mm 1 m/s 684 mmHg 80%
    01:00 +14°C° 0 mm 1 m/s 684 mmHg 82%
    02:00 +13°C° 0 mm 1 m/s 683 mmHg 83%
    03:00 +13°C° 0 mm 1 m/s 683 mmHg 85%
    04:00 +12°C° 0 mm 1 m/s 683 mmHg 87%
    05:00 +13°C° 0 mm 1 m/s 684 mmHg 84%
    06:00 +14°C° 0 mm 1 m/s 684 mmHg 81%
    07:00 +15°C° 0 mm 1 m/s 685 mmHg 78%
    08:00 +16°C° 0 mm 1 m/s 685 mmHg 70%
    09:00 +19°C° 0 mm 1 m/s 686 mmHg 62%
    10:00 +21°C° 0 mm 1 m/s 686 mmHg 54%
    11:00 +21°C° 0,1 mm 2 m/s 686 mmHg 50%
    12:00 +23°C° 0,1 mm 2 m/s 686 mmHg 46%
    13:00 +24°C° 0,1 mm 2 m/s 686 mmHg 42%
    14:00 +23°C° 1,3 mm 2 m/s 686 mmHg 44%
    15:00 +23°C° 1,3 mm 2 m/s 686 mmHg 46%
    16:00 +23°C° 1,3 mm 2 m/s 685 mmHg 48%
    17:00 +20°C° 1,5 mm 3 m/s 685 mmHg 56%
    18:00 +19°C° 1,5 mm 3 m/s 685 mmHg 64%
    19:00 +17°C° 1,5 mm 3 m/s 686 mmHg 72%
    20:00 +17°C° 0,6 mm 3 m/s 686 mmHg 75%
    21:00 +16°C° 0,6 mm 3 m/s 686 mmHg 79%
    22:00 +14°C° 0,6 mm 3 m/s 687 mmHg 82%
    23:00 +14°C° 0,1 mm 3 m/s 687 mmHg 83%

    2 Mai, Marţi

    Timp Temperatura Precipitaţii Vânt Presiune Umiditate
    00:00 +13°C° 0,1 mm 3 m/s 686 mmHg 84%
    01:00 +13°C° 0,1 mm 3 m/s 686 mmHg 84%
    02:00 +12°C° 0 mm 3 m/s 686 mmHg 86%
    03:00 +12°C° 0 mm 3 m/s 686 mmHg 87%
    04:00 +12°C° 0 mm 2 m/s 685 mmHg 89%
    05:00 +12°C° 0 mm 2 m/s 686 mmHg 87%
    06:00 +12°C° 0 mm 2 m/s 686 mmHg 85%
    07:00 +11°C° 0 mm 3 m/s 686 mmHg 84%
    08:00 +13°C° 0 mm 2 m/s 687 mmHg 79%
    09:00 +14°C° 0 mm 2 m/s 687 mmHg 74%
    10:00 +15°C° 0 mm 1 m/s 687 mmHg 69%
    11:00 +16°C° 0,1 mm 1 m/s 687 mmHg 66%
    12:00 +18°C° 0,1 mm 1 m/s 687 mmHg 64%
    13:00 +18°C° 0,1 mm 1 m/s 687 mmHg 61%
    14:00 +19°C° 0,2 mm 1 m/s 686 mmHg 59%
    15:00 +19°C° 0,3 mm 1 m/s 686 mmHg 58%
    16:00 +20°C° 0,3 mm 1 m/s 686 mmHg 56%
    17:00 +19°C° 0,4 mm 1 m/s 686 mmHg 61%
    18:00 +18°C° 0,4 mm 1 m/s 686 mmHg 66%
    19:00 +18°C° 0,4 mm 1 m/s 685 mmHg 70%
    20:00 +16°C° 0,3 mm 1 m/s 686 mmHg 72%
    21:00 +16°C° 0,3 mm 2 m/s 686 mmHg 73%
    22:00 +15°C° 0,3 mm 2 m/s 686 mmHg 75%
    23:00 +14°C° 0,1 mm 2 m/s 686 mmHg 77%
    Arată mai mult